sat.trackr.live / text

‹ back to catalog

CENTISPACE-1 GROUP 05 O*

NORAD 69585 · 2026-138D

PAYLOAD ACTIVE UNKNOWN

§ Identity

Operator
Country
PRC
Launch date
2026-06-17
Launch site
JSC
Launch vehicle
Mass (kg)
RCS (m²)

External: N2YO · Heavens-Above · Gunter

§ Orbital elements

Epoch: 2026-09-20T02:15:22.376736Z

Period
101.70 min
Inclination
55.1400°
Eccentricity
0.0012641
Mean motion
14.15933655 rev/d
Perigee alt
830.0 km
Apogee alt
848.3 km
Semi-major
7,217.3 km
B*
1.4086e-4
RAAN
290.5188°
Arg perigee
106.9464°
Mean anomaly
253.2897°
Rev number
1,346

§ Raw data

CENTISPACE-1 GROUP 05 O*1 69585U 26138D   26263.09400899  .00000125  00000+0  14086-3 0  99902 69585  55.1400 290.5188 0012641 106.9464 253.2897 14.15933655 13469

JSON: /api/v1/satellites/69585 · /tle

For live sub-satellite position, see the globe view (requires WebGL).

§ Visibility from observer

Set your observer location to see the next 7 days of passes ≥ 10°. The values pass through the URL so the page stays shareable.

No JS? Fill the form by hand. The geolocation button needs JavaScript.